Regional Weather Roundup
Issued by NWS Boston, MA

Home | Current Version | Previous Version | Text Only | Print | Product List | Glossary On
Versions: 1 2 3 4 5 6 7 8 9 10 11 12 13 14 15 16 17 18 19 20 21 22 23 24 25 26 27
000
ASUS41 KBOX 240610
RWRBOX

REGIONAL WEATHER ROUNDUP
NATIONAL WEATHER SERVICE TAUNTON MA
200 AM EDT FRI MAR 24 2017

NOTE:  "FAIR" INDICATES FEW OR NO CLOUDS BELOW 12,000 FEET WITH NO
SIGNIFICANT WEATHER AND/OR OBSTRUCTIONS TO VISIBILITY.

MAZALL-240700-
EASTERN MASSACHUSETTS

CITY           SKY/WX    TMP DP  RH WIND       PRES   REMARKS
BOSTON         CLOUDY    32   6  33 W5        30.53F WCI  27
6HR MIN TEMP:  32; 6HR MAX TEMP:  36;

BEVERLY        CLOUDY    25  11  55 CALM      30.52S
LAWRENCE       CLOUDY    26   8  46 S3        30.52F
BEDFORD        CLOUDY    24  11  57 E3        30.50F
BLUE HILL        N/A     25   7  46 NW6       30.47F WCI  18
NORWOOD        CLEAR     20  14  77 E3        30.52F
MARSHFIELD     CLEAR     25   7  46 W3        30.53S
PLYMOUTH       CLEAR     22   7  52 CALM      30.53S
TAUNTON        CLEAR     19  12  74 CALM      30.53S
NEW BEDFORD    CLEAR     24  12  60 CALM      30.54R
$$

MAZALL-240700-
CAPE COD AND THE ISLANDS

CITY           SKY/WX    TMP DP  RH WIND       PRES   REMARKS
FALMOUTH       CLEAR     25   7  46 MISG      30.55S
HYANNIS        CLEAR     30   6  36 W3        30.53R
CHATHAM        CLEAR     27  10  49 CALM      30.54S
PROVINCETOWN   CLEAR     33  17  51 NW8       30.54S WCI  26
NANTUCKET      CLEAR     30  13  49 NW5       30.54S WCI  25
MARTHAS VNYRD  CLEAR     19   8  62 CALM      30.55R
$$

MAZALL-240700-
CENTRAL AND WESTERN MASSACHUSETTS

CITY           SKY/WX    TMP DP  RH WIND       PRES   REMARKS
WORCESTER      PTCLDY    24   3  40 W7        30.46F WCI  16
6HR MIN TEMP:  24; 6HR MAX TEMP:  30;

FITCHBURG      CLOUDY    26  13  57 CALM      30.50F
ORANGE         CLOUDY    22  14  71 CALM      30.48F
SPRINGFIELD    CLOUDY    22  13  68 CALM      30.49F
WESTFIELD      CLOUDY    21  12  68 S3        30.50F
NORTH ADAMS    CLOUDY    25  10  53 CALM      30.47F
PITTSFIELD     CLOUDY    20  10  65 CALM      30.42F
$$

RIZALL-240700-
RHODE ISLAND

CITY           SKY/WX    TMP DP  RH WIND       PRES   REMARKS
PROVIDENCE     PTCLDY    28   3  34 CALM      30.53F
6HR MIN TEMP:  27; 6HR MAX TEMP:  34;

NEWPORT        CLEAR     25  11  55 CALM      30.53S
BLOCK ISLAND   CLEAR     29  12  49 CALM      30.54S
SMITHFIELD     CLEAR     25   6  44 CALM      30.51S
WESTERLY       CLEAR     23  14  68 CALM      30.54F
$$

CTZALL-240700-
CONNECTICUT

CITY           SKY/WX    TMP DP  RH WIND       PRES   REMARKS
BRADLEY INTL   MOCLDY    24  10  55 CALM      30.50F
6HR MIN TEMP:  23; 6HR MAX TEMP:  34;

HARTFORD       CLEAR     26  15  63 CALM      30.52F
BRIDGEPORT     PTCLDY    30  19  63 CALM      30.52F
DANBURY        CLOUDY    23  15  71 CALM      30.51F
GROTON         CLEAR     24  13  62 N3        30.53F
NEW HAVEN      PTCLDY    24  15  68 CALM      30.52F
CHESTER        FAIR      28  10  47 S3        30.51F
MERIDEN        CLEAR     23  13  65 CALM      30.52F
WILLIMANTIC    CLEAR     22  15  75 NE5       30.52F WCI  16
OXFORD         CLOUDY    28   5  37 S5        30.49F WCI  23
$$

MEZ002-015-021-024-NHZ003-005-008-011-012-014-VTZ005-008-240700-
NORTHERN NEW ENGLAND

CITY           SKY/WX    TMP DP  RH WIND       PRES   REMARKS
PORTLAND ME    PTCLDY    23   3  42 CALM      30.52S
6HR MIN TEMP:  22; 6HR MAX TEMP:  30;

BANGOR ME      CLOUDY    17   0  47 SW3       30.48S
CONCORD NH     CLOUDY    24  14  65 CALM      30.48F
MANCHESTER NH  CLOUDY    27   7  42 SE3       30.48F
NASHUA NH      CLOUDY    26  13  57 E3        30.50
PORTSMOUTH NH  MOCLDY    27   6  42 E3        30.50F
JAFFREY NH     CLOUDY    23   9  55 CALM      30.44F
KEENE NH       CLOUDY    24  13  62 CALM      30.48F
BURLINGTON VT  PTCLDY    28   5  37 S7        30.40F WCI  21
MT. WASHINGTON PTCLDY    14 -24  17 W16         N/A  WCI  -2
$$

NYZ052-076-240700-
EASTERN NEW YORK

CITY           SKY/WX    TMP DP  RH WIND       PRES   REMARKS
ALBANY         CLOUDY    28  11  48 S5        30.47F WCI  23
6HR MIN TEMP:  24; 6HR MAX TEMP:  32;

NEW YORK CITY  PTCLDY    39  21  48 S6        30.52F
6HR MIN TEMP:  39; 6HR MAX TEMP:  43;

$$

ANZALL-240700-
MARINE OBSERVATIONS

STATION/POSITION TIME  TEMP    WIND        PRES    VSBY  WAVE
                       AIR SEA DIR/SP/G                  HT/PER
                 (UTC) (F)     (DEG/KT/KT) (MB)    (MI)  (FT/S)
BOSTON BUOY      0550   35 40  290/ 10/ 10 1033.8R         2/ 4
BUZZARDS BAY     0500   34     310/  9/ 10 1034.7R
NANTUCKET SOUND  0550      38              1034.0R         1/ 3
MASS BAY-STELLWA 0504   34 38  310/  6/  8 1032.9R         2/ 5
ISLE OF SHOALS   0500   31     330/  7/  8 1033.7R
S OF BLOCK IS    0555      40                N/A           2/ 4
$$

......................KEY.........................
  SKY/WX - SKY CONDITION/PRESENT WEATHER
  TMP    - TEMPERATURE IN FAHRENHEIT
  DWPT   - DEWPOINT IN FAHRENHEIT
  RH     - RELATIVE HUMIDITY IN PERCENT
  WIND   - DIRECTION AND SPEED IN MPH
  PRES   - MEAN SEA LEVEL PRESSURE IN INCHES OF HG
  WCI    - WIND CHILL INDEX
  VSB    - VISIBILITY IN MILES
  HX     - HEAT INDEX
  TC     - TEMPERATURE IN CELSIUS
  VRB    - VARIABLE WIND DIRECTION
  N/A    - NOT AVAILABLE




USA.gov is the U.S. government's official web portal to all federal, state and local government web resources and services.